This is the latest recevied weather packets stored in our database for station/object KG5WBN. If no packets are shown the sender has not sent any weather packets the latest 10 day(s).
| Time | Temp. | Humidity | Pressure | Rain* | Wind** | Luminosity | Snow |
|---|---|---|---|---|---|---|---|
| 1778112957 | 26.67° C | 83% | 1010.5 hPa | 0 mm | - | 5 W/m² | - |
| 1778112654 | 26.67° C | 83% | 1010.2 hPa | 0 mm | - | 11 W/m² | - |
| 1778112350 | 26.67° C | 83% | 1010.2 hPa | 0 mm | - | 14 W/m² | - |
| 1778112046 | 26.67° C | 82% | 1010.2 hPa | 0 mm | - | 13 W/m² | - |
| 1778111744 | 26.67° C | 82% | 1010.2 hPa | 0 mm | - | 13 W/m² | - |
| 1778111439 | 26.67° C | 82% | 1010.2 hPa | 0 mm | - | 17 W/m² | - |
| 1778111137 | 27.22° C | 82% | 1010.2 hPa | 0 mm | - | 13 W/m² | - |
| 1778110834 | 27.22° C | 81% | 1010.2 hPa | 0 mm | - | 20 W/m² | - |
| 1778110530 | 27.22° C | 80% | 1010.2 hPa | 0 mm | - | 30 W/m² | - |
| 1778110222 | 27.22° C | 79% | 1010.2 hPa | 0 mm | - | 28 W/m² | - |
| 1778109918 | 27.78° C | 78% | 1009.8 hPa | 0 mm | - | 44 W/m² | - |
| 1778109613 | 27.78° C | 77% | 1010.2 hPa | 0 mm | - | 69 W/m² | - |
| 1778109311 | 27.78° C | 77% | 1010.2 hPa | 0 mm | - | 69 W/m² | - |
| 1778109009 | 27.22° C | 78% | 1010.2 hPa | 0 mm | - | 74 W/m² | - |
| 1778108704 | 27.22° C | 77% | 1010.2 hPa | 0 mm | - | 50 W/m² | - |
| 1778108402 | 27.78° C | 76% | 1010.2 hPa | 0 mm | - | 63 W/m² | - |
| 1778108099 | 27.78° C | 76% | 1010.2 hPa | 0 mm | - | 51 W/m² | - |
| 1778107795 | 28.33° C | 73% | 1010.2 hPa | 0 mm | - | 70 W/m² | - |
| 1778107492 | 28.33° C | 72% | 1010.2 hPa | 0 mm | - | 90 W/m² | - |
| 1778107189 | 28.33° C | 72% | 1010.2 hPa | 0 mm | - | 100 W/m² | - |
| 1778106885 | 28.33° C | 62% | 1010.2 hPa | 0 mm | - | 112 W/m² | - |
| 1778106582 | 28.33° C | 62% | 1010.2 hPa | 0 mm | - | 112 W/m² | - |
| 1778106278 | 28.89° C | 63% | 1010.2 hPa | 0 mm | - | 85 W/m² | - |
| 1778105975 | 29.44° C | 61% | 1010.2 hPa | 0 mm | - | 103 W/m² | - |
| 1778105672 | 28.89° C | 61% | 1010.2 hPa | 0 mm | - | 135 W/m² | - |
* Rain latest hour (hover to see other rain measurements)
** Current wind speed in m/s (hover to see current wind gust speed)